Regional Weather Roundup
Issued by NWS Upton, NY

Current Version | Previous Version | Graphics & Text | Print | Product List | Glossary Off
Versions: 1 2 3 4 5 6 7 8 9 10 11 12 13 14 15 16 17 18 19 20 21 22 23 24 25 26 27

000
ASUS41 KOKX 250709
RWROKX

REGIONAL WEATHER ROUNDUP
NATIONAL WEATHER SERVICE NEW YORK NY
300 AM EDT SUN JUN 25 2017

NOTE: "FAIR" INDICATES FEW OR NO CLOUDS BELOW 12,000 FEET WITH NO
SIGNIFICANT WEATHER AND/OR OBSTRUCTIONS TO VISIBILITY.

NYZ071-072-176-178-NJZ106-104-250800-
NEW YORK CITY METRO AREA

CITY           SKY/WX    TMP DP  RH WIND       PRES   REMARKS
Central Park   CLOUDY    73  59  61 CALM      29.95R
Bronx Bot Gard   N/A     70  57  64 NW5       29.93R
LaGuardia APRT CLOUDY    73  61  65 N8        29.91S
Kennedy INTL   PTCLDY    73  60  63 N5        29.92S
Breezy Point     N/A     72 N/A N/A W3          N/A
Newark/Liberty MOCLDY    73  58  59 NW6       29.92R
Teterboro      CLOUDY    71  59  65 NW7       29.92R
$$

NYZ177-179-078>081-250800-
LONG ISLAND NEW YORK

CITY           SKY/WX    TMP DP  RH WIND       PRES   REMARKS
Jones Beach      N/A     72 N/A N/A NW5         N/A
Matinecock PT  NOT AVBL
Farmingdale    NOT AVBL
MacArthur/ISP  CLEAR     69  61  75 NW3       29.91S
Shirley        CLEAR     66  62  87 CALM      29.92R
Mt Sinai Harb    N/A    N/A N/A N/A MISG        N/A
Westhampton    CLEAR     60  57  89 CALM      29.93R
East Hampton   FAIR      62  60  91 CALM      29.91R
Montauk          N/A     68  60  75 NW5       29.92R
$$

NYZ052-065-067-250800-
HUDSON VALLEY

CITY           SKY/WX    TMP DP  RH WIND       PRES   REMARKS
White Plains   NOT AVBL
Larchmont Harb   N/A     70 N/A N/A NW2         N/A
Croton O-T Hud   N/A     68 N/A N/A N5          N/A
Newburgh       CLEAR     64  63  94 CALM      29.95S
Montgomery     CLEAR     62  60  93 CALM      29.94S
Poughkeepsie   FOG       62  61  96 CALM      29.92S VSB 1/4
Albany         CLEAR     62  53  72 W8        29.92S
$$

NJZ001-105-106-008-010-013-015-019>022-104-250800-
NEW JERSEY

CITY           SKY/WX    TMP DP  RH WIND       PRES   REMARKS
Newark/Liberty MOCLDY    73  58  59 NW6       29.92R
Teterboro      CLOUDY    71  59  65 NW7       29.92R
Caldwell       PTCLDY    69  59  70 CALM      29.94S
Somerville     CLEAR     65  62  90 CALM      29.92S
Linden         PTSUNNY   71  58  62 CALM      29.92S
Perth Amboy      N/A     72 N/A N/A W5          N/A
Sussex         CLEAR     61  60  97 CALM      29.95F
Andover          N/A     61  59  93 CALM      29.96S
Trenton        CLEAR     71  60  68 NW5       29.93S
Millville      CLEAR     66  65  96 W3        29.94R
Atlantic City  CLEAR     71  63  75 W5        29.93S
Wrightstown    CLEAR     68  62  79 CALM      29.91S
Toms River     CLEAR     67  61  81 CALM      29.94R
Belmar         CLEAR     69  62  78 SW6       29.94S
$$

PAZ047>061-062-071-250800-
EASTERN PENNSYLVANIA

CITY           SKY/WX    TMP DP  RH WIND       PRES   REMARKS
Philadelphia   CLEAR     74  59  59 NW5       29.94R
Allentown      CLEAR     64  58  80 CALM      29.95S
Scranton       CLEAR     60  58  92 E3        29.98S
$$

CTZ002-004>006-009-010-012-RIZ004-006-007-MAZ004-011-015-250800-
SOUTHERN NEW ENGLAND
 IN CT

CITY           SKY/WX    TMP DP  RH WIND       PRES   REMARKS
Bradley INTL   PTCLDY    66  55  67 NW3       29.91S
Hartford       CLEAR     66  59  78 CALM      29.90S
Danbury        PTCLDY    62  60  93 CALM      29.94S
Wtrbury/Oxford PTCLDY    63  55  77 CALM      29.94R
Bridgeport     CLOUDY    70  61  73 CALM      29.91R
Meriden        MOCLDY    63  60  90 CALM      29.91S
New Haven      NOT AVBL
Chester        FAIR      64  59  82 CALM      29.92R
Groton         CLEAR     65  58  78 CALM      29.89S
Wilimantic     PTCLDY    68  60  75 NE5       29.90F

 IN RI

CITY           SKY/WX    TMP DP  RH WIND       PRES   REMARKS
Providence     PTCLDY    68  57  68 W5        29.89S
Block Island   CLEAR     67  58  72 NW7       29.91R
Westerly       CLEAR     69  58  67 N6        29.89F
 IN MA

CITY           SKY/WX    TMP DP  RH WIND       PRES   REMARKS
Boston         CLOUDY    73  53  49 W7        29.86S
Worcester      CLOUDY    65  50  58 W14       29.91S
Westfield      CLOUDY    66  56  70 CALM        N/A
Provincetown   CLEAR     66  56  70 W10       29.87S
Nantucket        N/A     62  60  93 SW5       29.88F
$$

ANZ330-335-338-340-345-350-353-355-250800-
COASTAL MARINE OBSERVATIONS


STATION/POSITION TIME  SKY/WX   TEMP    WIND        PRES    VSBY  WAVE
                                AIR SEA DIR/SP/G                  HT/PER
                 (UTC)          (F)     (DEG/KT/KT) (MB)    (MI)  (FT/S)
NY HARB ENTRANCE 0550            71 67  280/ 10/ 12 1013.0          3/ 9
20 S FIRE ISLAND 0550            70 68  230/ 10/ 12 1012.2          5/ 8
GREAT SOUTH BAY  0630            73 76  360/  4/  6   N/A
23 SSW MONTAUK P 0550            68 64              1012.5          6/ 8
15 E BARNEGAT LI 0630               64                N/A           4/ 8
HUDSON CANYON    0550            69 66  250/  8/  8 1013.3          5/ 8
KINGS POINT      0630            69 64  360/  7/  7 1013.0
EXECUTION ROCKS  0645            69      CALM  /  2   N/A
CENTRAL LI SOUND 0645            69     290/  4/  6   N/A           1
EASTERN LI SOUND NOT AVBL
ROBBINS REEF     0624                   310/  4/  6 1013.7
$$


>>>>>>>>>>>>>>>>>>>>>>>>>>>> KEY <<<<<<<<<<<<<<<<<<<<<<<<<<<
>                                                          <
>     SKY/WX - Sky Condition/Present Weather               <
>     TMP    - Temperature in Fahrenheit                   <
>     DP     - Dew Point in Fahrenheit                     <
>     RH     - Relative Humidity in Percent                <
>     WIND   - Direction (from) and Speed in MPH           <
>     PRES   - Mean Sea Level Pressure (inches of Hg)      <
>     WCI    - Wind Chill Index                            <
>     VSB    - VISIBILITY IN MILES                         <
>     HX     - HEAT INDEX                                  <
>     TC     - TEMPERATURE IN CELSIUS                      <
>     VRB    - VARIABLE WIND DIRECTION                     <
>                                                          <
>>>>>>>>>>>>>>>>>>>>>>>>>>>> KEY <<<<<<<<<<<<<<<<<<<<<<<<<<<




USA.gov is the U.S. government's official web portal to all federal, state and local government web resources and services.